FENGYUN 1C DEB, 37056

Orbit data source: Space-Track

FENGYUN 1C DEB, 37056 is space debris in SSO originally from a launch on Mon, 10 May 1999 UTC launched from the Taiyaun Space Center, China (TSC). Fengyun 1C debris stems from the Chinese weather satellite Fengyun-1C, which was intentionally destroyed by a Chinese anti-satellite missile in 2007. This event dramatically increased the amount of space debris, with thousands of trackable fragments posing hazards to satellites and human spaceflight. The Fengyun 1C debris cloud has become a focal point in discussions about space sustainability and the need for international regulations to prevent the creation of new debris.

Loading next visibility...
Identifier
37056, 1999-025EEQ
Orbit
SSO
Country
Flag of CNCN / PRC
Related business
Manufacturer
Unknown
Mission
Spacecraft
Bus & Motor
Unknown
Mass
Unknown
Launch date (UTC)
1999-05-10 (27 years ago)
Launch vehicle
Unknown
Launch site
Taiyaun Space Center, China (TSC)
Object type
Payload
Rocket body
Debris
Shape & HBR
Unknown shape, 0.1 m
Radar Cross Section
Small (<0.1 m²)

Expand to show TLE details & history
Last TLE update: 9 hours ago

TLE from 9 hours ago
0 FENGYUN 1C DEB
1 37056U 99025EEQ 26256.85501269  .00001404  00000-0  23227-3 0  9991
2 37056  98.9537 302.5970 0265671  37.7795 324.1724 14.51458528694011
Epoch: 2026-09-13T20:31Z
TLE epoch observation values (Epoch: 2026-09-13T20:31:13.096Z)
Latitude
0.00001°
Longitude
1.94875°
Altitude
572.668 km
Speed
7.655 km/s
True Right ascension
20h 10m 23s
True Declination
0° 00' 00"
Sunlit
Object was in full shadow at epoch
Visualization orbit readout
Latitude
Unknown
Longitude
Unknown
Altitude
Unknown
Speed
Unknown
Apparent Right ascension
Unknown
Apparent Declination
Unknown
Sunlit
N/A
Visualization observer readout
Local Sidereal Time
22:16:08
Azimuth
Unknown
Elevation
Unknown
Doppler factor
Unknown
Orbital elements
Apogee altitude
906.539 km
Perigee altitude
529.49 km
Semi-major axis
7,096.151 km
Eccentricity
0.02657
Inclination
98.9537°
RAAN
302.597°
Arg. of periapsis
37.7795°
True anomaly
322.34145°
Mean anomaly
324.1724°
Eccentric anomaly
323.26189°
Mean motion
3.63085 °/min
Orbital period
99.15 mins
BSTAR
0.00023227
Loading maneuver chart data...
Computing Atmospheric mass density...
Loading historical data...
Loading historical data...
Loading historical data...
Loading historical data...
Loading historical data...
Loading historical data...
Loading historical data...

Documentation

Showing up to 5 results
|